User: anonymous   Login
Location: *
(33.8649°S, 62.1526°E)
Time: 00:34:18
(UTC+00:00)
Language:

CZ-2C R/B - Orbit

View from above orbital plane
View from above orbital plane
View from above satellite
View from above satellite

Ground track
Ground track

The orbit data is extracted from the following two-line orbital elements,

1 36089U 09061B   21102.49021620 -.00000011  00000-0  87581-5 0  9999
2 36089  98.1976  73.1827 0083168  74.6972  36.0561 14.49854133603784
Epoch (UTC): 12 April 2021 11:45:54
Eccentricity: 0.0083168
inclination: 98.1976°
perigee height: 667 km
apogee height: 785 km
right ascension of ascending node: 73.1827°
argument of perigee: 74.6972°
revolutions per day: 14.49854133
mean anomaly at epoch: 36.0561°
orbit number at epoch: 60378

The dashed part of the orbit path shows where the satellite is in the earth's shadow,  

DLR